Location: Unspecified
(0.0000°N, 0.0000°E)
Time: 13:16:06
(UTC+00:00)

FORMOSAT 3A - Pass Details

Date: 21 May 2026
Orbit: 751 x 823 km, 72.0° (Epoch: 5 June)

Event Time Altitude Azimuth Distance (km) Brightness Sun altitude
Rises 20:31:29 0° 338° (NNW) 3,313 10.9 -35.9°
Reaches altitude 10° 20:33:56 10° 335° (NNW) 2,375 10.0 -36.5°
Enters shadow 20:36:20 26° 326° (NW) 1,519 8.9 -37.0°
